Hourly Data Report for October 09, 2014

All times are specified in Local Standard Time (LST). Add 1 hour to adjust for Daylight Saving Time where and when it is observed.

BATHURST A
NEW BRUNSWICK

47°37'47.000" N
65°44'20.000" W
58.80 m
8100505
71574
ZBF

Download Data

Hourly Data (October 2014)
Hourly Data Report for October 9, 2014
Temp Definition
°C
Dew Point Temp Definition
°C
Rel Hum Definition
%
Wind Dir Definition
10's deg

Wind Spd Definition
km/h
Visibility Definition
km
Stn Press Definition
kPa
Hmdx Definition


Wind Chill Definition


Weather Definition


TIME
00:00 Legend Double Dagger 11.0 9.1 88 21 10 24.1 99.53     LegendNANA
01:00 Legend Double Dagger 9.8 8.4 91 18 6 24.1 99.53     LegendNANA
02:00 Legend Double Dagger 9.0 8.1 94 21 9 24.1 99.56     Mostly Cloudy
03:00 Legend Double Dagger 9.6 8.2 91 21 7 24.1 99.55     LegendNANA
04:00 Legend Double Dagger 9.5 6.8 83 20 10 24.1 99.58     LegendNANA
05:00 Legend Double Dagger 8.0 5.8 86 23 13 24.1 99.63     Mainly Clear
06:00 Legend Double Dagger 7.2 4.7 84 20 10 24.1 99.70     LegendNANA
07:00 Legend Double Dagger 5.5 4.6 94 16 4 24.1 99.78     LegendNANA
08:00 Legend Double Dagger 7.7 5.7 87 18 10 24.1 99.79     Mainly Clear
09:00 Legend Double Dagger 10.8 5.0 67 24 23 24.1 99.79     LegendNANA
10:00 Legend Double Dagger 11.7 3.8 58 26 22 24.1 99.79     LegendNANA
11:00 Legend Double Dagger 12.5 2.4 50 24 31 24.1 99.80     Mostly Cloudy
12:00 Legend Double Dagger 12.1 3.1 54 24 21 24.1 99.79     LegendNANA
13:00 Legend Double Dagger 11.5 2.8 55 23 21 24.1 99.77     LegendNANA
14:00 Legend Double Dagger 10.5 2.1 56 26 32 24.1 99.79     Rain Showers
15:00 Legend Double Dagger 12.0 2.2 51 23 26 24.1 99.79     LegendNANA
16:00 Legend Double Dagger 12.2 0.0 43 24 21 24.1 99.84     LegendNANA
17:00 Legend Double Dagger 10.8 -0.9 44 25 25 24.1 99.89     Mainly Clear
18:00 Legend Double Dagger 8.4 -0.4 54 22 8 24.1 99.92     LegendNANA
19:00 Legend Double Dagger 4.3 0.8 78 36 2 24.1 99.91     LegendNANA
20:00 Legend Double Dagger 5.6 1.0 72 21 7 24.1 99.88     Mostly Cloudy
21:00 Legend Double Dagger 4.6 1.3 79 20 5 24.1 99.89     LegendNANA
22:00 Legend Double Dagger 5.9 2.4 78 24 20 16.1 99.95     Rain Showers
23:00 Legend Double Dagger 5.3 2.8 84 23 15 24.1 99.91     Mainly Clear

Notes on Data Quality.

Legend

  • E = Estimated
  • M = Missing
  • NA = Not Available
  • ‡ = Partner data that is not subject to review by the National Climate Archives
Date modified: